SCOUT B DEB, 29279

Orbit data source: Space-Track

SCOUT B DEB, 29279 is space debris in LEO originally from a launch on Thu, 08 Aug 1968 UTC launched from the Air Force Western Test Range (AFWTR). Debris objects in space refer to the collection of defunct objects orbiting the Earth. Examples of debris include non-operational satellites, rocket bodies, and fragments generated from explosions, collisions, or faulty payload assembly.

Loading next visibility...
Identifier
29279, 1968-066N
Orbit
LEO
Last TLE update
7 months ago
Origin
Manufacturer
Unknown
Mission
Spacecraft
Bus & Motor
Unknown
Mass
Unknown
Launch date (UTC)
1968-08-08 (57 years ago)
Launch vehicle
Unknown
Launch site
Air Force Western Test Range (AFWTR)
Object type
Payload
Rocket body
Debris
Shape & HBR
Unknown
Radar Cross Section
Small (<0.1 m²)

Expand to show TLE details & history

TLE from 7 months ago
0 SCOUT B DEB
1 29279U 68066N   24292.39230666  .00010641  00000-0  53853-2 0  9997
2 29279  80.6012 160.1866 0554835  24.4627 338.1787 13.57417443198645
Epoch: 2024-10-18T09:24Z
Definitive object data (Epoch: 2024-10-18T09:24:55.295Z)
Latitude
-0.00007°
Longitude
-8.4065°
Altitude
668.892 km
Speed
7.712 km/s
True Right ascension
10h 40m 44s
True Declination
0° 00' 00"
Sunlit
Object was in daylight at TLE epoch
Visualization TLE readout
Latitude
32.58631°
Longitude
161.884°
Altitude
1,421.024 km
Speed
6.963 km/s
Apparent Right ascension
00h 02m 53s
Apparent Declination
0° 40' 39"
Sunlit
Object is in full shadow
Visualization observer readout
Local Sidereal Time
14:53:06
Azimuth
54.534° ENE
Elevation
-33.875°
Doppler factor
1
Orbital elements
Apogee altitude
1,454.071 km
Perigee altitude
630.641 km
Semi-major axis
7,420.493 km
Eccentricity
0.0554835
Inclination
80.6012°
RAAN
160.1866°
Arg. of periapsis
24.4627°
True anomaly
335.65405°
Mean anomaly
338.1787°
Eccentric anomaly
336.93316°
Mean motion
3.39542 °/min
BSTAR
0.0053853
Orbital period
106.03 mins
Loading maneuver chart data...
Loading SW <> Apogee altitude chart data...
Loading historical data...
Loading historical data...
Loading historical data...
Loading historical data...
Loading historical data...
Loading historical data...
Loading historical data...

SCOUT B DEB Visibility forecast

Observer location: undefined°, undefined°

Span
Click to sort rows by Start time (UTC) header in descending order
Start Az.
Max El. time (UTC)
Max El. Az.
Max El.
End time (UTC)
End Az.
8 mins2025-05-09 12:00:13.010Z109.399° ESE2025-05-09 12:04:13.010Z79.483° E15.861°2025-05-09 12:08:13.010Z49.923° ENE
15 mins2025-05-09 13:43:13.010Z182.055° SSW2025-05-09 13:50:13.010Z58.622° ENE44.456°2025-05-09 13:58:13.010Z12.294° NNE
11 mins2025-05-09 15:32:13.010Z252.316° W2025-05-09 15:37:13.010Z292.696° NW21.862°2025-05-09 15:43:13.010Z341.733° N
5 mins2025-05-09 23:05:13.010Z35.304° NE2025-05-09 23:07:13.010Z54.406° ENE14.715°2025-05-09 23:10:13.010Z85.301° E
11 mins2025-05-10 00:50:13.010Z348.11° N2025-05-10 00:55:13.010Z322.988° NNW44.246°2025-05-10 01:01:13.010Z174.744° S
|